TimeAKST,TemperatureF,Dew PointF,Humidity,Sea Level PressureIn,VisibilityMPH,Wind Direction,Wind SpeedMPH,Gust SpeedMPH,PrecipitationIn,Events,Conditions,WindDirDegrees,DateUTC
12:19 AM,37.4,32.0,81,29.88,10.0,North,-9999.0,-,0.00,Rain,Light Rain,0,2013-02-26 09:19:00
12:53 AM,37.9,33.1,83,29.88,10.0,North,-9999.0,-,0.01,Rain,Light Rain,0,2013-02-26 09:53:00
1:53 AM,37.9,33.1,83,29.84,10.0,North,-9999.0,-,0.01,Rain,Light Rain,0,2013-02-26 10:53:00
2:53 AM,37.0,33.1,86,29.81,10.0,North,-9999.0,-,0.02,Rain,Light Rain,0,2013-02-26 11:53:00
3:53 AM,37.0,33.1,86,29.78,10.0,North,-9999.0,-,0.01,Rain,Light Rain,0,2013-02-26 12:53:00
4:53 AM,37.9,33.1,83,29.75,10.0,North,-9999.0,-,0.00,Rain,Light Rain,0,2013-02-26 13:53:00
5:53 AM,37.0,34.0,89,29.72,10.0,North,-9999.0,-,0.02,Rain,Light Rain,0,2013-02-26 14:53:00
6:53 AM,37.0,34.0,89,29.70,10.0,North,-9999.0,-,0.02,Rain,Light Rain,0,2013-02-26 15:53:00
7:41 AM,37.4,33.8,87,29.69,4.0,ESE,18.4,-,0.02,Rain,Light Rain,120,2013-02-26 16:41:00
7:53 AM,37.0,35.1,93,29.69,4.0,ESE,15.0,26.5,0.03,Rain,Light Rain,120,2013-02-26 16:53:00
8:39 AM,37.4,35.6,93,29.68,6.0,ESE,17.3,24.2,0.03,Rain,Light Rain,120,2013-02-26 17:39:00
8:53 AM,37.0,35.1,93,29.68,6.0,ESE,17.3,24.2,0.04,Rain,Light Rain,120,2013-02-26 17:53:00
9:25 AM,37.4,35.6,93,29.66,7.0,ESE,17.3,24.2,0.01,Rain,Light Rain,120,2013-02-26 18:25:00
9:53 AM,37.9,35.1,89,29.68,5.0,ESE,15.0,27.6,0.03,Rain,Light Rain,120,2013-02-26 18:53:00
10:06 AM,37.4,35.6,93,29.68,5.0,SE,13.8,27.6,0.03,Rain,Rain,130,2013-02-26 19:06:00
10:53 AM,39.0,37.0,93,29.71,10.0,SE,18.4,32.2,0.08,Rain,Light Rain,140,2013-02-26 19:53:00
11:05 AM,39.2,37.4,93,29.71,10.0,SE,18.4,26.5,0.00,,Overcast,140,2013-02-26 20:05:00
11:17 AM,39.2,37.4,93,29.71,2.5,SSE,17.3,25.3,0.02,Rain,Rain,150,2013-02-26 20:17:00
11:25 AM,39.2,37.4,93,29.71,3.0,SSE,15.0,27.6,0.03,Rain,Light Rain,150,2013-02-26 20:25:00
11:53 AM,39.0,36.0,89,29.72,9.0,SE,15.0,24.2,0.04,Rain,Light Rain,140,2013-02-26 20:53:00
12:00 PM,39.2,35.6,87,29.72,10.0,SSE,11.5,21.9,0.01,Rain,Light Rain,150,2013-02-26 21:00:00
12:53 PM,39.9,37.0,89,29.73,10.0,SE,18.4,27.6,0.01,,Overcast,140,2013-02-26 21:53:00
1:26 PM,39.2,37.4,93,29.72,10.0,SE,13.8,26.5,N/A,,Overcast,130,2013-02-26 22:26:00
1:53 PM,39.9,37.0,89,29.74,10.0,SE,17.3,27.6,0.00,,Overcast,130,2013-02-26 22:53:00
2:53 PM,41.0,37.0,86,29.74,10.0,SE,18.4,27.6,N/A,,Overcast,140,2013-02-26 23:53:00
3:53 PM,41.0,36.0,82,29.74,10.0,SE,16.1,24.2,N/A,,Overcast,140,2013-02-27 00:53:00
4:23 PM,41.0,35.6,81,29.74,10.0,SE,17.3,28.8,0.00,Rain,Light Rain,140,2013-02-27 01:23:00
4:34 PM,39.2,35.6,87,29.74,6.0,SE,18.4,27.6,0.00,Rain,Light Rain,140,2013-02-27 01:34:00
4:53 PM,39.9,36.0,86,29.73,5.0,ESE,20.7,31.1,0.05,Rain,Light Rain,120,2013-02-27 01:53:00
5:53 PM,39.0,36.0,89,29.76,10.0,SE,13.8,20.7,0.12,,Overcast,140,2013-02-27 02:53:00
6:53 PM,39.9,36.0,86,29.78,10.0,SE,11.5,21.9,N/A,,Mostly Cloudy,140,2013-02-27 03:53:00
7:13 PM,39.2,37.4,93,29.77,10.0,SE,13.8,23.0,N/A,,Mostly Cloudy,140,2013-02-27 04:13:00
7:53 PM,41.0,36.0,82,29.78,10.0,SSE,12.7,18.4,N/A,,Overcast,150,2013-02-27 04:53:00
8:08 PM,41.0,37.4,87,29.78,10.0,SE,10.4,20.7,N/A,,Overcast,130,2013-02-27 05:08:00
8:31 PM,41.0,37.4,87,29.78,10.0,SSE,11.5,19.6,N/A,,Overcast,150,2013-02-27 05:31:00
8:40 PM,41.0,37.4,87,29.78,10.0,SE,12.7,17.3,N/A,,Overcast,140,2013-02-27 05:40:00
8:53 PM,41.0,36.0,82,29.79,10.0,SSE,11.5,18.4,N/A,,Overcast,150,2013-02-27 05:53:00
9:06 PM,42.8,35.6,76,29.79,10.0,SSE,12.7,19.6,N/A,,Mostly Cloudy,160,2013-02-27 06:06:00
9:53 PM,42.1,36.0,79,29.80,9.0,SSE,12.7,24.2,0.00,Rain,Light Rain,160,2013-02-27 06:53:00
10:53 PM,42.1,34.0,73,29.81,10.0,SSE,12.7,23.0,0.01,,Overcast,160,2013-02-27 07:53:00
11:53 PM,41.0,35.1,79,29.83,10.0,SSE,8.1,25.3,0.02,,Overcast,160,2013-02-27 08:53:00